Location: Unspecified
(42.1900°N, 71.3291°W)
Time: 21:06:15
(UTC-04:00)

Cosmos 1674 - Visible Passes

Search period start: 20 May 2018 00:00
Search period end: 30 May 2018 00:00
Orbit: 496 x 521 km, 82.5° (Epoch: 20 May)

Date Brightness Start Highest point End Pass type
(mag) Time Alt. Az. Time Alt. Az. Time Alt. Az.
20 May 3.0 02:33:54 56° NW 02:33:54 56° NW 02:37:08 10° N visible
21 May 3.1 02:16:55 59° N 02:16:55 59° N 02:20:02 10° N visible
22 May 3.4 01:59:57 52° NNE 01:59:57 52° NNE 02:02:53 10° NNE visible
23 May 3.8 01:42:57 41° NE 01:42:57 41° NE 01:45:42 10° NNE visible
24 May 4.1 01:25:57 32° NE 01:25:57 32° NE 01:28:28 10° NNE visible
24 May 5.0 03:00:49 13° WNW 03:00:49 13° WNW 03:02:29 10° NW visible
25 May 4.5 01:08:56 26° ENE 01:08:56 26° ENE 01:11:10 10° NNE visible
25 May 4.7 02:43:48 16° WNW 02:43:48 16° WNW 02:45:55 10° NNW visible
26 May 4.8 00:51:55 21° ENE 00:51:55 21° ENE 00:53:49 10° NE visible
26 May 4.5 02:26:46 20° WNW 02:26:46 20° WNW 02:29:09 10° NNW visible
27 May 5.0 00:34:52 16° ENE 00:34:52 16° ENE 00:36:22 10° NE visible
27 May 4.3 02:09:44 24° WNW 02:09:44 24° WNW 02:12:16 10° NNW visible
28 May 5.2 00:17:49 13° ENE 00:17:49 13° ENE 00:18:46 10° NE visible
28 May 4.1 01:52:41 30° NW 01:52:41 30° NW 01:55:19 10° N visible
29 May 5.4 00:00:45 10° ENE 00:00:45 10° ENE 00:00:51 10° ENE visible
29 May 3.9 01:35:37 36° NW 01:35:37 36° NW 01:38:19 10° N visible
